"Sample Date","Sample Time","Sensor Name","Sample Value","Units","Flow Rate","Sample Interval","Sample Volume","Laser Status","Number Channels","Micron Size 0","Counts/Channel 0","Micron Size 1","Counts/Channel 1","Micron Size 2","Counts/Channel 2","Micron Size 3","Counts/Channel 3","Micron Size 4","Counts/Channel 4","Micron Size 5","Counts/Channel 5","Micron Size 6","Counts/Channel 6","Micron Size 7","Counts/Channel 7","Micron Size 8","Counts/Channel 8","Micron Size 9","Counts/Channel 9","Micron Size 10","Counts/Channel 10","Micron Size 11","Counts/Channel 11","Micron Size 12","Counts/Channel 12","Micron Size 13","Counts/Channel 13","Micron Size 14","Counts/Channel 14","Micron Size 15","Counts/Channel 15","Micron Size 16","Counts/Channel 16","Micron Size 17","Counts/Channel 17","Micron Size 18","Counts/Channel 18","Micron Size 19","Counts/Channel 19","Micron Size 20","Counts/Channel 20","Micron Size 21","Counts/Channel 21","Micron Size 22","Counts/Channel 22","Micron Size 23","Counts/Channel 23","Micron Size 24","Counts/Channel 24","Micron Size 25","Counts/Channel 25","Micron Size 26","Counts/Channel 26","Micron Size 27","Counts/Channel 27","Micron Size 28","Counts/Channel 28","Micron Size 29","Counts/Channel 29","Micron Size 30","Counts/Channel 30","Micron Size 31","Counts/Channel 31"
"07/01/06","16:00:03","AMMA06",56370.000,"cc",28284.541,6.00,2828.454,1,6,0.100,30972.000,0.200,20555.000,0.300,3264.000,0.500,942.000,1.000,637.000,5.000,0
"07/01/06","16:00:09","AMMA06",56566.000,"cc",28311.572,6.00,2831.158,1,6,0.100,31101.000,0.200,20532.000,0.300,3275.000,0.500,1011.000,1.000,647.000,5.000,0
"07/01/06","16:00:15","AMMA06",56882.000,"cc",28370.459,6.00,2837.046,1,6,0.100,31480.000,0.200,20554.000,0.300,3267.000,0.500,950.000,1.000,631.000,5.000,0
"07/01/06","16:00:21","AMMA06",56498.000,"cc",28277.527,6.00,2827.753,1,6,0.100,31170.000,0.200,20477.000,0.300,3291.000,0.500,933.000,1.000,626.000,5.000,1.000
"07/01/06","16:00:27","AMMA06",56545.000,"cc",28343.096,6.00,2834.310,1,6,0.100,31271.000,0.200,20427.000,0.300,3283.000,0.500,942.000,1.000,621.000,5.000,1.000
"07/01/06","16:00:33","AMMA06",56634.000,"cc",28302.565,6.00,2830.257,1,6,0.100,31260.000,0.200,20410.000,0.300,3368.000,0.500,934.000,1.000,661.000,5.000,1.000
"07/01/06","16:00:39","AMMA06",56779.000,"cc",28304.379,6.00,2830.438,1,6,0.100,31354.000,0.200,20567.000,0.300,3289.000,0.500,935.000,1.000,633.000,5.000,1.000
"07/01/06","16:00:45","AMMA06",56151.000,"cc",28271.453,6.00,2827.146,1,6,0.100,31036.000,0.200,20301.000,0.300,3193.000,0.500,948.000,1.000,673.000,5.000,0
"07/01/06","16:00:51","AMMA06",56849.000,"cc",28345.361,6.00,2834.536,1,6,0.100,31455.000,0.200,20583.000,0.300,3218.000,0.500,950.000,1.000,643.000,5.000,0
"07/01/06","16:00:57","AMMA06",56384.000,"cc",28353.883,6.00,2835.388,1,6,0.100,31092.000,0.200,20582.000,0.300,3158.000,0.500,898.000,1.000,654.000,5.000,0
"07/01/06","16:01:03","AMMA06",56475.000,"cc",28316.088,6.00,2831.609,1,6,0.100,31069.000,0.200,20496.000,0.300,3271.000,0.500,985.000,1.000,653.000,5.000,1.000
"07/01/06","16:01:09","AMMA06",56996.000,"cc",28332.299,6.00,2833.230,1,6,0.100,31249.000,0.200,20865.000,0.300,3306.000,0.500,966.000,1.000,610.000,5.000,0
"07/01/06","16:01:15","AMMA06",56934.000,"cc",28322.662,6.00,2832.266,1,6,0.100,31289.000,0.200,20831.000,0.300,3180.000,0.500,982.000,1.000,650.000,5.000,2.000
"07/01/06","16:01:21","AMMA06",56760.000,"cc",28290.729,6.00,2829.073,1,6,0.100,31047.000,0.200,20807.000,0.300,3287.000,0.500,984.000,1.000,635.000,5.000,0
"07/01/06","16:01:27","AMMA06",57161.000,"cc",28341.570,6.00,2834.157,1,6,0.100,31389.000,0.200,20818.000,0.300,3315.000,0.500,976.000,1.000,661.000,5.000,2.000
"07/01/06","16:01:33","AMMA06",56857.000,"cc",28279.766,6.00,2827.977,1,6,0.100,31097.000,0.200,20746.000,0.300,3328.000,0.500,1045.000,1.000,641.000,5.000,0
"07/01/06","16:01:39","AMMA06",56770.000,"cc",28297.133,6.00,2829.713,1,6,0.100,31083.000,0.200,20735.000,0.300,3256.000,0.500,1014.000,1.000,682.000,5.000,0
"07/01/06","16:01:45","AMMA06",56392.000,"cc",28330.895,6.00,2833.090,1,6,0.100,31032.000,0.200,20540.000,0.300,3232.000,0.500,1000.000,1.000,588.000,5.000,0
"07/01/06","16:01:51","AMMA06",57201.000,"cc",28335.943,6.00,2833.595,1,6,0.100,31462.000,0.200,20916.000,0.300,3233.000,0.500,940.000,1.000,650.000,5.000,0
"07/01/06","16:01:57","AMMA06",56719.000,"cc",28343.082,6.00,2834.308,1,6,0.100,31004.000,0.200,20816.000,0.300,3280.000,0.500,978.000,1.000,641.000,5.000,0
"07/01/06","16:02:03","AMMA06",57207.000,"cc",28296.576,6.00,2829.658,1,6,0.100,31366.000,0.200,20977.000,0.300,3257.000,0.500,977.000,1.000,630.000,5.000,0
"07/01/06","16:02:09","AMMA06",56588.000,"cc",28288.658,6.00,2828.866,1,6,0.100,30823.000,0.200,20894.000,0.300,3219.000,0.500,983.000,1.000,668.000,5.000,1.000
"07/01/06","16:02:15","AMMA06",56741.000,"cc",28325.986,6.00,2832.599,1,6,0.100,31166.000,0.200,20636.000,0.300,3315.000,0.500,969.000,1.000,655.000,5.000,0
"07/01/06","16:02:21","AMMA06",56869.000,"cc",28333.604,6.00,2833.361,1,6,0.100,31027.000,0.200,20859.000,0.300,3358.000,0.500,991.000,1.000,633.000,5.000,1.000
"07/01/06","16:02:27","AMMA06",56641.000,"cc",28323.754,6.00,2832.376,1,6,0.100,30996.000,0.200,20739.000,0.300,3275.000,0.500,973.000,1.000,658.000,5.000,0
"07/01/06","16:02:33","AMMA06",56819.000,"cc",28293.943,6.00,2829.395,1,6,0.100,31006.000,0.200,20925.000,0.300,3316.000,0.500,910.000,1.000,661.000,5.000,1.000
"07/01/06","16:02:39","AMMA06",57026.000,"cc",28267.313,6.00,2826.731,1,6,0.100,31202.000,0.200,20869.000,0.300,3293.000,0.500,971.000,1.000,691.000,5.000,0
"07/01/06","16:02:45","AMMA06",56808.000,"cc",28365.791,6.00,2836.579,1,6,0.100,30971.000,0.200,20965.000,0.300,3245.000,0.500,990.000,1.000,637.000,5.000,0
"07/01/06","16:02:51","AMMA06",56788.000,"cc",28330.463,6.00,2833.046,1,6,0.100,31068.000,0.200,20759.000,0.300,3362.000,0.500,967.000,1.000,631.000,5.000,1.000
"07/01/06","16:02:57","AMMA06",56759.000,"cc",28355.072,6.00,2835.507,1,6,0.100,30798.000,0.200,20965.000,0.300,3375.000,0.500,1030.000,1.000,591.000,5.000,0
"07/01/06","16:03:03","AMMA06",56850.000,"cc",28279.354,6.00,2827.936,1,6,0.100,30989.000,0.200,20946.000,0.300,3308.000,0.500,994.000,1.000,611.000,5.000,2.000
"07/01/06","16:03:09","AMMA06",56575.000,"cc",28361.234,6.00,2836.124,1,6,0.100,30666.000,0.200,20898.000,0.300,3356.000,0.500,1013.000,1.000,642.000,5.000,0
"07/01/06","16:03:15","AMMA06",56710.000,"cc",28304.881,6.00,2830.488,1,6,0.100,31099.000,0.200,20635.000,0.300,3346.000,0.500,992.000,1.000,638.000,5.000,0
"07/01/06","16:03:21","AMMA06",56796.000,"cc",28299.047,6.00,2829.905,1,6,0.100,31037.000,0.200,20799.000,0.300,3398.000,0.500,946.000,1.000,614.000,5.000,2.000
"07/01/06","16:03:27","AMMA06",56761.000,"cc",28299.334,6.00,2829.934,1,6,0.100,31060.000,0.200,20768.000,0.300,3281.000,0.500,965.000,1.000,686.000,5.000,1.000
"07/01/06","16:03:33","AMMA06",56434.000,"cc",28334.082,6.00,2833.408,1,6,0.100,30874.000,0.200,20597.000,0.300,3282.000,0.500,990.000,1.000,691.000,5.000,0
"07/01/06","16:03:39","AMMA06",56719.000,"cc",28268.324,6.00,2826.833,1,6,0.100,30956.000,0.200,20811.000,0.300,3348.000,0.500,990.000,1.000,614.000,5.000,0
"07/01/06","16:03:45","AMMA06",56405.000,"cc",28253.047,6.00,2825.305,1,6,0.100,30774.000,0.200,20750.000,0.300,3270.000,0.500,952.000,1.000,658.000,5.000,1.000
"07/01/06","16:03:51","AMMA06",56622.000,"cc",28364.703,6.00,2836.471,1,6,0.100,31027.000,0.200,20613.000,0.300,3354.000,0.500,1017.000,1.000,611.000,5.000,0
"07/01/06","16:03:57","AMMA06",56874.000,"cc",28335.234,6.00,2833.524,1,6,0.100,30914.000,0.200,20852.000,0.300,3452.000,0.500,968.000,1.000,687.000,5.000,1.000
"07/01/06","16:04:03","AMMA06",56304.000,"cc",28339.291,6.00,2833.929,1,6,0.100,30815.000,0.200,20641.000,0.300,3240.000,0.500,960.000,1.000,648.000,5.000,0
"07/01/06","16:04:09","AMMA06",56517.000,"cc",28259.342,6.00,2825.934,1,6,0.100,30932.000,0.200,20671.000,0.300,3282.000,0.500,978.000,1.000,654.000,5.000,0
"07/01/06","16:04:15","AMMA06",56685.000,"cc",28360.707,6.00,2836.071,1,6,0.100,30942.000,0.200,20747.000,0.300,3340.000,0.500,983.000,1.000,673.000,5.000,0
"07/01/06","16:04:21","AMMA06",56729.000,"cc",28326.348,6.00,2832.635,1,6,0.100,31129.000,0.200,20770.000,0.300,3287.000,0.500,905.000,1.000,638.000,5.000,0
"07/01/06","16:04:27","AMMA06",57167.000,"cc",28291.746,6.00,2829.175,1,6,0.100,31355.000,0.200,20870.000,0.300,3338.000,0.500,965.000,1.000,639.000,5.000,0
"07/01/06","16:04:33","AMMA06",57144.000,"cc",28351.041,6.00,2835.104,1,6,0.100,31343.000,0.200,20845.000,0.300,3326.000,0.500,978.000,1.000,650.000,5.000,2.000
"07/01/06","16:04:39","AMMA06",56684.000,"cc",28327.240,6.00,2832.724,1,6,0.100,31168.000,0.200,20740.000,0.300,3179.000,0.500,964.000,1.000,631.000,5.000,2.000
"07/01/06","16:04:45","AMMA06",57121.000,"cc",28303.543,6.00,2830.355,1,6,0.100,31604.000,0.200,20599.000,0.300,3249.000,0.500,1026.000,1.000,642.000,5.000,1.000
"07/01/06","16:04:51","AMMA06",56802.000,"cc",28307.475,6.00,2830.748,1,6,0.100,31312.000,0.200,20689.000,0.300,3148.000,0.500,971.000,1.000,681.000,5.000,1.000
"07/01/06","16:04:57","AMMA06",57101.000,"cc",28331.000,6.00,2833.100,1,6,0.100,31686.000,0.200,20665.000,0.300,3158.000,0.500,971.000,1.000,621.000,5.000,0
"07/01/06","16:05:03","AMMA06",56963.000,"cc",28336.111,6.00,2833.611,1,6,0.100,31202.000,0.200,20942.000,0.300,3223.000,0.500,972.000,1.000,624.000,5.000,0
"07/01/06","16:05:09","AMMA06",56807.000,"cc",28281.283,6.00,2828.128,1,6,0.100,31350.000,0.200,20625.000,0.300,3223.000,0.500,975.000,1.000,634.000,5.000,0
"07/01/06","16:05:15","AMMA06",57084.000,"cc",28281.248,6.00,2828.125,1,6,0.100,31276.000,0.200,20755.000,0.300,3365.000,0.500,1015.000,1.000,673.000,5.000,0
"07/01/06","16:05:21","AMMA06",57229.000,"cc",28338.826,6.00,2833.883,1,6,0.100,31668.000,0.200,20767.000,0.300,3252.000,0.500,889.000,1.000,653.000,5.000,0
"07/01/06","16:05:27","AMMA06",56754.000,"cc",28367.889,6.00,2836.789,1,6,0.100,31145.000,0.200,20740.000,0.300,3235.000,0.500,1013.000,1.000,621.000,5.000,0
"07/01/06","16:05:33","AMMA06",56946.000,"cc",28326.432,6.00,2832.643,1,6,0.100,31358.000,0.200,20717.000,0.300,3304.000,0.500,908.000,1.000,659.000,5.000,0
"07/01/06","16:05:39","AMMA06",56633.000,"cc",28321.676,6.00,2832.168,1,6,0.100,30912.000,0.200,20886.000,0.300,3266.000,0.500,926.000,1.000,642.000,5.000,1.000
"07/01/06","16:05:45","AMMA06",57105.000,"cc",28226.488,6.00,2822.649,1,6,0.100,31471.000,0.200,20687.000,0.300,3276.000,0.500,964.000,1.000,706.000,5.000,1.000
"07/01/06","16:05:51","AMMA06",56992.000,"cc",28341.074,6.00,2834.108,1,6,0.100,30995.000,0.200,21052.000,0.300,3314.000,0.500,975.000,1.000,655.000,5.000,1.000
"07/01/06","16:05:57","AMMA06",57182.000,"cc",28319.607,6.00,2831.961,1,6,0.100,31099.000,0.200,21031.000,0.300,3334.000,0.500,1055.000,1.000,662.000,5.000,1.000
"07/01/06","16:06:03","AMMA06",57088.000,"cc",28299.391,6.00,2829.939,1,6,0.100,31153.000,0.200,21048.000,0.300,3319.000,0.500,976.000,1.000,592.000,5.000,0
"07/01/06","16:06:09","AMMA06",56834.000,"cc",28345.623,6.00,2834.563,1,6,0.100,30911.000,0.200,21061.000,0.300,3278.000,0.500,913.000,1.000,670.000,5.000,1.000
"07/01/06","16:06:15","AMMA06",57501.000,"cc",28319.373,6.00,2831.938,1,6,0.100,31350.000,0.200,21149.000,0.300,3353.000,0.500,1008.000,1.000,641.000,5.000,0
"07/01/06","16:06:21","AMMA06",57251.000,"cc",28312.076,6.00,2831.208,1,6,0.100,31184.000,0.200,21065.000,0.300,3348.000,0.500,996.000,1.000,658.000,5.000,0
"07/01/06","16:06:27","AMMA06",57069.000,"cc",28321.078,6.00,2832.108,1,6,0.100,30801.000,0.200,21185.000,0.300,3475.000,0.500,975.000,1.000,632.000,5.000,1.000
"07/01/06","16:06:33","AMMA06",57111.000,"cc",28296.830,6.00,2829.683,1,6,0.100,31121.000,0.200,20967.000,0.300,3403.000,0.500,989.000,1.000,629.000,5.000,2.000
"07/01/06","16:06:39","AMMA06",56982.000,"cc",28326.133,6.00,2832.614,1,6,0.100,30753.000,0.200,21116.000,0.300,3399.000,0.500,1032.000,1.000,682.000,5.000,0
"07/01/06","16:06:45","AMMA06",57210.000,"cc",28375.902,6.00,2837.590,1,6,0.100,31059.000,0.200,21122.000,0.300,3358.000,0.500,1007.000,1.000,664.000,5.000,0
"07/01/06","16:06:51","AMMA06",57375.000,"cc",28313.941,6.00,2831.394,1,6,0.100,30751.000,0.200,21542.000,0.300,3413.000,0.500,967.000,1.000,701.000,5.000,1.000
"07/01/06","16:06:57","AMMA06",57066.000,"cc",28363.055,6.00,2836.306,1,6,0.100,30879.000,0.200,21258.000,0.300,3325.000,0.500,960.000,1.000,642.000,5.000,2.000
"07/01/06","16:07:03","AMMA06",57007.000,"cc",28309.656,6.00,2830.966,1,6,0.100,30769.000,0.200,21125.000,0.300,3522.000,0.500,964.000,1.000,627.000,5.000,0
"07/01/06","16:07:09","AMMA06",57313.000,"cc",28263.688,6.00,2826.369,1,6,0.100,30711.000,0.200,21421.000,0.300,3502.000,0.500,1003.000,1.000,676.000,5.000,0
"07/01/06","16:07:15","AMMA06",57327.000,"cc",28337.039,6.00,2833.704,1,6,0.100,30563.000,0.200,21598.000,0.300,3477.000,0.500,1021.000,1.000,668.000,5.000,0
"07/01/06","16:07:21","AMMA06",56992.000,"cc",28298.008,6.00,2829.801,1,6,0.100,30398.000,0.200,21421.000,0.300,3480.000,0.500,989.000,1.000,703.000,5.000,1.000
"07/01/06","16:07:27","AMMA06",56852.000,"cc",28266.522,6.00,2826.652,1,6,0.100,30519.000,0.200,21282.000,0.300,3460.000,0.500,940.000,1.000,650.000,5.000,1.000
"07/01/06","16:07:33","AMMA06",57175.000,"cc",28335.674,6.00,2833.568,1,6,0.100,30688.000,0.200,21444.000,0.300,3403.000,0.500,964.000,1.000,676.000,5.000,0
"07/01/06","16:07:39","AMMA06",57281.000,"cc",28328.129,6.00,2832.813,1,6,0.100,30667.000,0.200,21568.000,0.300,3413.000,0.500,956.000,1.000,677.000,5.000,0
"07/01/06","16:07:45","AMMA06",57067.000,"cc",28310.387,6.00,2831.039,1,6,0.100,30510.000,0.200,21417.000,0.300,3551.000,0.500,937.000,1.000,651.000,5.000,1.000
"07/01/06","16:07:51","AMMA06",56897.000,"cc",28306.070,6.00,2830.607,1,6,0.100,30573.000,0.200,21151.000,0.300,3472.000,0.500,1011.000,1.000,689.000,5.000,1.000
"07/01/06","16:07:57","AMMA06",57082.000,"cc",28301.043,6.00,2830.105,1,6,0.100,30645.000,0.200,21436.000,0.300,3436.000,0.500,949.000,1.000,616.000,5.000,0
"07/01/06","16:08:03","AMMA06",56883.000,"cc",28328.035,6.00,2832.804,1,6,0.100,30847.000,0.200,20913.000,0.300,3494.000,0.500,984.000,1.000,644.000,5.000,1.000
"07/01/06","16:08:09","AMMA06",56609.000,"cc",28329.076,6.00,2832.908,1,6,0.100,30587.000,0.200,21013.000,0.300,3375.000,0.500,962.000,1.000,671.000,5.000,1.000
"07/01/06","16:08:15","AMMA06",56408.000,"cc",28286.744,6.00,2828.675,1,6,0.100,30718.000,0.200,20771.000,0.300,3263.000,0.500,999.000,1.000,656.000,5.000,1.000
"07/01/06","16:08:21","AMMA06",56753.000,"cc",28344.039,6.00,2834.404,1,6,0.100,30856.000,0.200,21040.000,0.300,3294.000,0.500,931.000,1.000,631.000,5.000,1.000
"07/01/06","16:08:27","AMMA06",56853.000,"cc",28309.766,6.00,2830.977,1,6,0.100,30838.000,0.200,20952.000,0.300,3441.000,0.500,1003.000,1.000,617.000,5.000,2.000
"07/01/06","16:08:33","AMMA06",56680.000,"cc",28323.340,6.00,2832.334,1,6,0.100,30905.000,0.200,20897.000,0.300,3267.000,0.500,954.000,1.000,656.000,5.000,1.000
"07/01/06","16:08:39","AMMA06",56278.000,"cc",28316.914,6.00,2831.692,1,6,0.100,30717.000,0.200,20639.000,0.300,3253.000,0.500,1007.000,1.000,660.000,5.000,2.000
"07/01/06","16:08:45","AMMA06",56861.000,"cc",28295.721,6.00,2829.572,1,6,0.100,31027.000,0.200,21055.000,0.300,3200.000,0.500,974.000,1.000,604.000,5.000,1.000
"07/01/06","16:08:51","AMMA06",56905.000,"cc",28300.791,6.00,2830.079,1,6,0.100,31361.000,0.200,20552.000,0.300,3323.000,0.500,999.000,1.000,670.000,5.000,0
"07/01/06","16:08:57","AMMA06",56579.000,"cc",28342.027,6.00,2834.203,1,6,0.100,31367.000,0.200,20373.000,0.300,3234.000,0.500,983.000,1.000,619.000,5.000,3.000
"07/01/06","16:09:03","AMMA06",56670.000,"cc",28320.086,6.00,2832.009,1,6,0.100,31140.000,0.200,20765.000,0.300,3177.000,0.500,987.000,1.000,600.000,5.000,1.000
"07/01/06","16:09:09","AMMA06",56707.000,"cc",28283.432,6.00,2828.343,1,6,0.100,30818.000,0.200,20982.000,0.300,3278.000,0.500,970.000,1.000,659.000,5.000,0
"07/01/06","16:09:15","AMMA06",56396.000,"cc",28274.490,6.00,2827.449,1,6,0.100,31012.000,0.200,20459.000,0.300,3295.000,0.500,1000.000,1.000,630.000,5.000,0
"07/01/06","16:09:21","AMMA06",56860.000,"cc",28363.295,6.00,2836.330,1,6,0.100,31116.000,0.200,20873.000,0.300,3245.000,0.500,968.000,1.000,657.000,5.000,1.000
"07/01/06","16:09:27","AMMA06",57207.000,"cc",28314.252,6.00,2831.425,1,6,0.100,31582.000,0.200,20702.000,0.300,3262.000,0.500,1003.000,1.000,658.000,5.000,0
"07/01/06","16:09:33","AMMA06",56455.000,"cc",28296.941,6.00,2829.694,1,6,0.100,30805.000,0.200,20668.000,0.300,3310.000,0.500,1003.000,1.000,669.000,5.000,0
"07/01/06","16:09:39","AMMA06",56896.000,"cc",28299.307,6.00,2829.931,1,6,0.100,31337.000,0.200,20659.000,0.300,3291.000,0.500,979.000,1.000,630.000,5.000,0
"07/01/06","16:09:45","AMMA06",56670.000,"cc",28358.047,6.00,2835.805,1,6,0.100,31068.000,0.200,20652.000,0.300,3327.000,0.500,992.000,1.000,631.000,5.000,0
"07/01/06","16:09:51","AMMA06",56498.000,"cc",28319.186,6.00,2831.919,1,6,0.100,30886.000,0.200,20772.000,0.300,3224.000,0.500,1000.000,1.000,616.000,5.000,0
"07/01/06","16:09:57","AMMA06",56617.000,"cc",28263.959,6.00,2826.396,1,6,0.100,31129.000,0.200,20603.000,0.300,3409.000,0.500,887.000,1.000,588.000,5.000,1.000
"07/01/06","16:10:03","AMMA06",56538.000,"cc",28388.346,6.00,2838.835,1,6,0.100,31343.000,0.200,20374.000,0.300,3197.000,0.500,973.000,1.000,651.000,5.000,0
"07/01/06","16:10:09","AMMA06",56521.000,"cc",28330.856,6.00,2833.086,1,6,0.100,31059.000,0.200,20592.000,0.300,3221.000,0.500,985.000,1.000,664.000,5.000,0
"07/01/06","16:10:15","AMMA06",56471.000,"cc",28290.320,6.00,2829.032,1,6,0.100,30965.000,0.200,20624.000,0.300,3296.000,0.500,973.000,1.000,613.000,5.000,0
"07/01/06","16:10:21","AMMA06",56974.000,"cc",28298.777,6.00,2829.878,1,6,0.100,31181.000,0.200,20895.000,0.300,3287.000,0.500,1013.000,1.000,598.000,5.000,0
"07/01/06","16:10:27","AMMA06",56318.000,"cc",28296.305,6.00,2829.631,1,6,0.100,31017.000,0.200,20415.000,0.300,3262.000,0.500,934.000,1.000,689.000,5.000,1.000
"07/01/06","16:10:33","AMMA06",56927.000,"cc",28335.367,6.00,2833.537,1,6,0.100,31151.000,0.200,20863.000,0.300,3255.000,0.500,1021.000,1.000,637.000,5.000,0
"07/01/06","16:10:39","AMMA06",57073.000,"cc",28311.029,6.00,2831.103,1,6,0.100,31282.000,0.200,20910.000,0.300,3176.000,0.500,1018.000,1.000,686.000,5.000,1.000
"07/01/06","16:10:45","AMMA06",57290.000,"cc",28326.402,6.00,2832.640,1,6,0.100,31581.000,0.200,20865.000,0.300,3203.000,0.500,978.000,1.000,663.000,5.000,0
"07/01/06","16:10:51","AMMA06",56863.000,"cc",28363.871,6.00,2836.387,1,6,0.100,31205.000,0.200,20657.000,0.300,3407.000,0.500,987.000,1.000,606.000,5.000,1.000
"07/01/06","16:10:57","AMMA06",56988.000,"cc",28278.072,6.00,2827.807,1,6,0.100,31160.000,0.200,20940.000,0.300,3271.000,0.500,986.000,1.000,631.000,5.000,0
"07/01/06","16:11:03","AMMA06",57321.000,"cc",28308.441,6.00,2830.844,1,6,0.100,31215.000,0.200,21143.000,0.300,3381.000,0.500,949.000,1.000,633.000,5.000,0
"07/01/06","16:11:09","AMMA06",57311.000,"cc",28342.690,6.00,2834.269,1,6,0.100,31475.000,0.200,20932.000,0.300,3285.000,0.500,998.000,1.000,620.000,5.000,1.000
"07/01/06","16:11:15","AMMA06",56810.000,"cc",28318.111,6.00,2831.811,1,6,0.100,31058.000,0.200,20855.000,0.300,3259.000,0.500,984.000,1.000,653.000,5.000,1.000
"07/01/06","16:11:21","AMMA06",57458.000,"cc",28296.010,6.00,2829.601,1,6,0.100,31370.000,0.200,21035.000,0.300,3375.000,0.500,1011.000,1.000,666.000,5.000,1.000
"07/01/06","16:11:27","AMMA06",57390.000,"cc",28294.791,6.00,2829.479,1,6,0.100,31305.000,0.200,21185.000,0.300,3321.000,0.500,971.000,1.000,606.000,5.000,2.000
"07/01/06","16:11:33","AMMA06",56791.000,"cc",28373.848,6.00,2837.385,1,6,0.100,31295.000,0.200,20715.000,0.300,3190.000,0.500,953.000,1.000,637.000,5.000,1.000
"07/01/06","16:11:39","AMMA06",56741.000,"cc",28302.861,6.00,2830.286,1,6,0.100,31108.000,0.200,20723.000,0.300,3275.000,0.500,1005.000,1.000,630.000,5.000,0
"07/01/06","16:11:45","AMMA06",57063.000,"cc",28291.356,6.00,2829.136,1,6,0.100,31413.000,0.200,20820.000,0.300,3231.000,0.500,972.000,1.000,625.000,5.000,2.000
"07/01/06","16:11:51","AMMA06",57133.000,"cc",28382.826,6.00,2838.283,1,6,0.100,31202.000,0.200,20939.000,0.300,3385.000,0.500,933.000,1.000,673.000,5.000,1.000
"07/01/06","16:11:57","AMMA06",57393.000,"cc",28310.223,6.00,2831.023,1,6,0.100,31721.000,0.200,20853.000,0.300,3208.000,0.500,965.000,1.000,646.000,5.000,0
"07/01/06","16:12:03","AMMA06",56908.000,"cc",28304.754,6.00,2830.476,1,6,0.100,31002.000,0.200,20997.000,0.300,3285.000,0.500,971.000,1.000,650.000,5.000,3.000
"07/01/06","16:12:09","AMMA06",56571.000,"cc",28336.385,6.00,2833.639,1,6,0.100,30879.000,0.200,20760.000,0.300,3312.000,0.500,1001.000,1.000,619.000,5.000,0
"07/01/06","16:12:15","AMMA06",56971.000,"cc",28242.543,6.00,2824.254,1,6,0.100,31216.000,0.200,20814.000,0.300,3287.000,0.500,990.000,1.000,664.000,5.000,0
"07/01/06","16:12:21","AMMA06",56948.000,"cc",28305.670,6.00,2830.567,1,6,0.100,31337.000,0.200,20916.000,0.300,3160.000,0.500,930.000,1.000,604.000,5.000,1.000
"07/01/06","16:12:27","AMMA06",56858.000,"cc",28346.041,6.00,2834.604,1,6,0.100,30968.000,0.200,21080.000,0.300,3213.000,0.500,991.000,1.000,606.000,5.000,0
"07/01/06","16:12:33","AMMA06",56332.000,"cc",28337.760,6.00,2833.776,1,6,0.100,31056.000,0.200,20489.000,0.300,3166.000,0.500,1000.000,1.000,620.000,5.000,1.000
"07/01/06","16:12:39","AMMA06",57430.000,"cc",28306.479,6.00,2830.648,1,6,0.100,31649.000,0.200,20851.000,0.300,3307.000,0.500,978.000,1.000,644.000,5.000,1.000
"07/01/06","16:12:45","AMMA06",56968.000,"cc",28310.010,6.00,2831.001,1,6,0.100,31382.000,0.200,20742.000,0.300,3233.000,0.500,994.000,1.000,617.000,5.000,0
"07/01/06","16:12:51","AMMA06",56873.000,"cc",28323.357,6.00,2832.336,1,6,0.100,31218.000,0.200,20672.000,0.300,3377.000,0.500,971.000,1.000,634.000,5.000,1.000
"07/01/06","16:12:57","AMMA06",57440.000,"cc",28293.037,6.00,2829.304,1,6,0.100,31548.000,0.200,20884.000,0.300,3428.000,0.500,950.000,1.000,630.000,5.000,0
"07/01/06","16:13:03","AMMA06",57019.000,"cc",28332.412,6.00,2833.242,1,6,0.100,31305.000,0.200,20728.000,0.300,3363.000,0.500,984.000,1.000,639.000,5.000,0
"07/01/06","16:13:09","AMMA06",57233.000,"cc",28312.371,6.00,2831.237,1,6,0.100,31193.000,0.200,21090.000,0.300,3287.000,0.500,986.000,1.000,677.000,5.000,0
"07/01/06","16:13:15","AMMA06",56782.000,"cc",28298.031,6.00,2829.803,1,6,0.100,31265.000,0.200,20625.000,0.300,3317.000,0.500,956.000,1.000,619.000,5.000,0
"07/01/06","16:13:21","AMMA06",57514.000,"cc",28328.385,6.00,2832.839,1,6,0.100,31534.000,0.200,21093.000,0.300,3296.000,0.500,979.000,1.000,612.000,5.000,0
"07/01/06","16:13:27","AMMA06",56911.000,"cc",28297.828,6.00,2829.783,1,6,0.100,31317.000,0.200,20717.000,0.300,3244.000,0.500,986.000,1.000,647.000,5.000,0
"07/01/06","16:13:33","AMMA06",57341.000,"cc",28318.219,6.00,2831.822,1,6,0.100,31618.000,0.200,20887.000,0.300,3221.000,0.500,992.000,1.000,622.000,5.000,1.000
"07/01/06","16:13:39","AMMA06",57473.000,"cc",28317.969,6.00,2831.797,1,6,0.100,31592.000,0.200,20958.000,0.300,3290.000,0.500,1004.000,1.000,627.000,5.000,2.000
"07/01/06","16:13:45","AMMA06",57013.000,"cc",28315.762,6.00,2831.576,1,6,0.100,31460.000,0.200,20721.000,0.300,3216.000,0.500,957.000,1.000,659.000,5.000,0
"07/01/06","16:13:51","AMMA06",57259.000,"cc",28323.367,6.00,2832.337,1,6,0.100,31667.000,0.200,20747.000,0.300,3299.000,0.500,907.000,1.000,639.000,5.000,0
"07/01/06","16:13:57","AMMA06",56851.000,"cc",28348.514,6.00,2834.852,1,6,0.100,31158.000,0.200,20893.000,0.300,3198.000,0.500,965.000,1.000,637.000,5.000,0
"07/01/06","16:14:03","AMMA06",56895.000,"cc",28354.902,6.00,2835.491,1,6,0.100,31444.000,0.200,20547.000,0.300,3220.000,0.500,1023.000,1.000,660.000,5.000,1.000